Location: Elende
(51.4317°N, 10.6316°E)
Time: 07:19:10
(UTC+00:00)

Cosmos 1536 Rocket - Pass Details

Date: 18 September 2020
Orbit: 606 x 631 km, 82.5° (Epoch: 20 October)

Event Time Altitude Azimuth Distance (km) Brightness Sun altitude
Rises 18:30:42 0° 353° (N) 2,913 7.3 -11.0°
Reaches altitude 10° 18:33:01 10° 360° (N) 2,006 6.4 -11.4°
Maximum altitude 18:37:19 46° 74° (ENE) 844 3.9 -12.0°
Enters shadow 18:41:16 12° 147° (SSE) 1,881 5.6 -12.6°
